﻿_id,日時,平均風速(m/s),平均風向,最大瞬間風速(m/s),最大風速時風向,気温(℃),湿度(%),10分間移動積算雨量(mm),1時間移動積算雨量(mm),日雨量(mm),累計雨量(mm)
1,2020-11-09T00:00:00,0.9,南東,2,南東,9.1,96.1,0,0,0.5,8.5
2,2020-11-09T00:01:00,0.9,南東,2,南東,9,95.7,0,0,0,8.5
3,2020-11-09T00:02:00,0.9,南東,2,南東,9,95.5,0,0,0,8.5
4,2020-11-09T00:03:00,0.9,南東,2,南東,8.9,95.5,0,0,0,8.5
5,2020-11-09T00:04:00,0.9,南東,2,南東,8.9,95.5,0,0,0,8.5
6,2020-11-09T00:05:00,1,南東,2,南東,8.9,95.4,0,0,0,8.5
7,2020-11-09T00:06:00,1,南東,2,南東,9,95.5,0,0,0,8.5
8,2020-11-09T00:07:00,1,東南東,2,南東,9.2,95.6,0,0,0,8.5
9,2020-11-09T00:08:00,0.9,東南東,1.8,東,9.6,96.3,0,0,0,8.5
10,2020-11-09T00:09:00,0.9,東南東,1.8,東,9.3,95.9,0,0,0,8.5
11,2020-11-09T00:10:00,0.9,東南東,1.8,東,9.1,95.3,0,0,0,8.5
12,2020-11-09T00:11:00,0.9,東,1.8,東,9.1,95.1,0,0,0,8.5
13,2020-11-09T00:12:00,0.8,東,1.8,東,9,95,0,0,0,8.5
14,2020-11-09T00:13:00,0.8,東,1.6,東南東,9,94.9,0,0,0,8.5
15,2020-11-09T00:14:00,0.8,東北東,1.6,東南東,8.9,95,0,0,0,8.5
16,2020-11-09T00:15:00,0.8,東北東,1.5,北北東,8.9,95,0,0,0,8.5
17,2020-11-09T00:16:00,0.7,東北東,1.5,北北東,8.9,95.1,0,0,0,8.5
18,2020-11-09T00:17:00,0.7,東北東,1.5,北北東,8.9,95.2,0,0,0,8.5
19,2020-11-09T00:18:00,0.8,東北東,1.5,北北東,8.9,95.3,0,0,0,8.5
20,2020-11-09T00:19:00,0.8,東北東,1.5,北北東,8.9,95.4,0,0,0,8.5
21,2020-11-09T00:20:00,0.8,北東,1.5,北北東,9,95.5,0,0,0,8.5
22,2020-11-09T00:21:00,0.7,北東,1.5,北北東,9,95.5,0,0,0,8.5
23,2020-11-09T00:22:00,0.7,北東,1.5,北北東,9,95.5,0,0,0,8.5
24,2020-11-09T00:23:00,0.7,北東,1.5,北北東,8.9,95.4,0,0,0,8.5
25,2020-11-09T00:24:00,0.6,北東,1.2,北北東,8.9,95.4,0,0,0,8.5
26,2020-11-09T00:25:00,0.5,北東,1.1,東北東,8.9,95.4,0,0,0,8.5
27,2020-11-09T00:26:00,0.5,北東,1,北東,8.9,95.5,0,0,0,8.5
28,2020-11-09T00:27:00,0.5,北東,1,北東,8.9,95.5,0,0,0,8.5
29,2020-11-09T00:28:00,0.5,北北東,0.8,北,8.9,95.5,0,0,0,8.5
30,2020-11-09T00:29:00,0.5,北北東,0.8,北,8.9,95.5,0,0,0,8.5
31,2020-11-09T00:30:00,0.5,北北東,0.8,北,8.9,95.6,0,0,0,8.5
32,2020-11-09T00:31:00,0.5,北北東,0.8,北,8.9,95.6,0,0,0,8.5
33,2020-11-09T00:32:00,0.5,北北東,0.8,北,8.9,95.6,0,0,0,8.5
34,2020-11-09T00:33:00,0.5,北北東,0.8,北,8.9,95.7,0,0,0,8.5
35,2020-11-09T00:34:00,0.5,北北東,0.8,北,9,95.8,0,0,0,8.5
36,2020-11-09T00:35:00,0.5,北東,0.8,北,9.1,95.9,0,0,0,8.5
37,2020-11-09T00:36:00,0.4,北東,0.8,北,9.2,96.1,0,0,0,8.5
38,2020-11-09T00:37:00,0.4,北東,0.7,東,9.1,95.9,0,0,0,8.5
39,2020-11-09T00:38:00,0.4,北東,0.9,東北東,9,95.6,0,0,0,8.5
40,2020-11-09T00:39:00,0.5,東北東,1,東南東,9.1,95.6,0,0,0,8.5
41,2020-11-09T00:40:00,0.5,東,1.3,南東,9.1,95.7,0,0,0,8.5
42,2020-11-09T00:41:00,0.6,東,1.3,南東,9.2,95.8,0,0,0,8.5
43,2020-11-09T00:42:00,,"",,"",,,,,,
44,2020-11-09T00:43:00,0.6,東,1.3,南東,9.1,95.7,0,0,0,8.5
45,2020-11-09T00:44:00,0.6,東,1.3,南東,9.1,95.6,0,0,0,8.5
46,2020-11-09T00:45:00,0.6,東,1.3,南東,9.2,95.7,0,0,0,8.5
47,2020-11-09T00:46:00,0.6,東,1.3,南東,9.2,95.8,0,0,0,8.5
48,2020-11-09T00:47:00,0.7,東,1.3,南東,9.2,95.8,0,0,0,8.5
49,2020-11-09T00:48:00,0.6,東,1.3,南東,9.2,95.7,0,0,0,8.5
50,2020-11-09T00:49:00,0.6,東,1.3,南東,9.2,95.6,0,0,0,8.5
51,2020-11-09T00:50:00,0.6,東北東,1.3,南東,9.2,95.6,0,0,0,8.5
52,2020-11-09T00:51:00,0.5,東北東,1,北東,9.2,95.6,0,0,0,8.5
53,2020-11-09T00:52:00,0.5,東北東,1,北東,9.2,95.7,0,0,0,8.5
54,2020-11-09T00:53:00,0.5,東,0.9,北東,9.3,95.8,0,0,0,8.5
55,2020-11-09T00:54:00,0.4,東,0.9,北東,9.5,96,0,0,0,8.5
56,2020-11-09T00:55:00,0.4,東,0.9,北東,9.8,96.6,0,0,0,8.5
57,2020-11-09T00:56:00,0.4,東,0.9,北東,9.6,96.3,0,0,0,8.5
58,2020-11-09T00:57:00,0.4,東,0.9,北東,9.4,95.5,0,0,0,8.5
59,2020-11-09T00:58:00,0.4,東,0.9,北東,9.4,95.4,0,0,0,8.5
60,2020-11-09T00:59:00,0.3,東,0.9,北東,9.3,95.3,0,0,0,8.5
61,2020-11-09T01:00:00,0.3,東,0.8,東北東,9.3,95.3,0,0,0,8.5
62,2020-11-09T01:01:00,0.3,東,0.7,東北東,9.3,95.3,0,0,0,8.5
63,2020-11-09T01:02:00,0.3,東,0.7,東北東,9.3,95.3,0,0,0,8.5
64,2020-11-09T01:03:00,0.3,東,0.9,北東,9.5,95.6,0,0,0,8.5
65,2020-11-09T01:04:00,0.4,東,1,北東,9.4,95.5,0,0,0,8.5
66,2020-11-09T01:05:00,0.4,東,1,北東,9.3,95.3,0,0,0,8.5
67,2020-11-09T01:06:00,0.5,東北東,1,北東,9.3,95.3,0,0,0,8.5
68,2020-11-09T01:07:00,0.6,東北東,1.2,東北東,9.3,95.3,0,0,0,8.5
69,2020-11-09T01:08:00,0.7,東北東,1.3,東北東,9.3,95.4,0,0,0,8.5
70,2020-11-09T01:09:00,0.7,東北東,1.3,東北東,9.3,95.4,0,0,0,8.5
71,2020-11-09T01:10:00,0.7,東北東,1.3,東北東,9.4,95.6,0,0,0,8.5
72,2020-11-09T01:11:00,0.7,東北東,1.3,東北東,9.4,95.6,0,0,0,8.5
73,2020-11-09T01:12:00,0.7,東北東,1.3,東北東,9.4,95.6,0,0,0,8.5
74,2020-11-09T01:13:00,0.7,東北東,1.3,東北東,9.4,95.7,0,0,0,8.5
75,2020-11-09T01:14:00,0.7,東北東,1.3,東北東,9.4,95.6,0,0,0,8.5
76,2020-11-09T01:15:00,0.7,東北東,1.3,東北東,9.3,95.5,0,0,0,8.5
77,2020-11-09T01:16:00,0.7,東北東,1.3,東北東,9.4,95.5,0,0,0,8.5
78,2020-11-09T01:17:00,0.6,東北東,1.3,東北東,9.4,95.6,0,0,0,8.5
79,2020-11-09T01:18:00,0.6,東北東,1,東南東,9.4,95.6,0,0,0,8.5
80,2020-11-09T01:19:00,0.6,東北東,1,東南東,9.4,95.6,0,0,0,8.5
81,2020-11-09T01:20:00,0.6,東北東,1,東南東,9.4,95.5,0,0,0,8.5
82,2020-11-09T01:21:00,0.7,東北東,1,東南東,9.4,95.5,0,0,0,8.5
83,2020-11-09T01:22:00,0.7,東北東,1,東南東,9.4,95.5,0,0,0,8.5
84,2020-11-09T01:23:00,0.7,東北東,1,東南東,9.4,95.6,0,0,0,8.5
85,2020-11-09T01:24:00,0.7,東北東,1,東南東,9.4,95.6,0,0,0,8.5
86,2020-11-09T01:25:00,0.7,東北東,1,東南東,9.5,95.7,0,0,0,8.5
87,2020-11-09T01:26:00,0.7,東北東,1,東南東,9.5,95.8,0,0,0,8.5
88,2020-11-09T01:27:00,0.6,東北東,1,東北東,9.6,95.7,0,0,0,8.5
89,2020-11-09T01:28:00,0.6,東北東,1,東北東,9.5,95.7,0,0,0,8.5
90,2020-11-09T01:29:00,0.6,東北東,1,東北東,9.6,95.6,0,0,0,8.5
91,2020-11-09T01:30:00,0.5,東北東,1,東北東,9.6,95.7,0,0,0,8.5
92,2020-11-09T01:31:00,0.5,東北東,1,東北東,9.5,95.6,0,0,0,8.5
93,2020-11-09T01:32:00,0.5,東北東,1,東北東,9.8,95.8,0,0,0,8.5
94,2020-11-09T01:33:00,0.4,東北東,1,南東,9.8,95.9,0,0,0,8.5
95,2020-11-09T01:34:00,0.5,東,1,南東,9.7,95.6,0,0,0,8.5
96,2020-11-09T01:35:00,0.5,東,1.3,南東,9.7,95.5,0,0,0,8.5
97,2020-11-09T01:36:00,0.6,東,1.5,南東,9.7,95.5,0,0,0,8.5
98,2020-11-09T01:37:00,0.7,東南東,1.8,南東,9.7,95.4,0,0,0,8.5
99,2020-11-09T01:38:00,0.8,東南東,1.8,南東,9.7,95.3,0,0,0,8.5
100,2020-11-09T01:39:00,1,東南東,2,南東,9.6,95.3,0,0,0,8.5
101,2020-11-09T01:40:00,1.1,東南東,2,南東,9.7,95.4,0,0,0,8.5
102,2020-11-09T01:41:00,1.2,南東,2.1,東南東,9.6,95.4,0,0,0,8.5
103,2020-11-09T01:42:00,1.3,南東,2.2,東南東,9.6,95.3,0,0,0,8.5
104,2020-11-09T01:43:00,1.5,南東,2.6,東南東,9.6,95.4,0,0,0,8.5
105,2020-11-09T01:44:00,1.6,東南東,2.6,東南東,9.7,95.5,0,0,0,8.5
106,2020-11-09T01:45:00,1.7,東南東,2.6,東南東,9.7,95.5,0,0,0,8.5
107,2020-11-09T01:46:00,1.7,東南東,2.6,東南東,9.7,95.5,0,0,0,8.5
108,2020-11-09T01:47:00,1.6,東南東,2.6,東南東,9.8,95.5,0,0,0,8.5
109,2020-11-09T01:48:00,1.5,東南東,2.6,東南東,9.8,95.6,0,0,0,8.5
110,2020-11-09T01:49:00,1.4,東,2.6,東南東,10,95.7,0,0,0,8.5
111,2020-11-09T01:50:00,1.2,東,2.6,東南東,9.9,95.8,0,0,0,8.5
112,2020-11-09T01:51:00,1.1,東,2.6,東南東,9.9,95.4,0,0,0,8.5
113,2020-11-09T01:52:00,0.9,東北東,2.6,東南東,9.8,95,0,0,0,8.5
114,2020-11-09T01:53:00,0.8,東北東,2.6,東南東,9.7,94.8,0,0,0,8.5
115,2020-11-09T01:54:00,0.6,北東,2.3,東南東,9.7,94.8,0,0,0,8.5
116,2020-11-09T01:55:00,0.4,北東,1.4,東,9.8,95,0,0,0,8.5
117,2020-11-09T01:56:00,0.3,北東,1.3,東,9.9,95.2,0,0,0,8.5
118,2020-11-09T01:57:00,0.3,北東,1.1,南,9.9,95.3,0,0,0,8.5
119,2020-11-09T01:58:00,0.4,東北東,1.7,南南東,10.1,95.4,0,0,0,8.5
120,2020-11-09T01:59:00,0.5,東,2,東南東,10.3,95.7,0,0,0,8.5
121,2020-11-09T02:00:00,0.6,南東,2.6,東南東,10.2,95.4,0,0,0,8.5
122,2020-11-09T02:01:00,0.7,東南東,2.6,東南東,10.2,95.2,0,0,0,8.5
123,2020-11-09T02:02:00,0.8,東南東,2.6,東南東,10.3,95,0,0,0,8.5
124,2020-11-09T02:03:00,0.7,南東,2.6,東南東,10.3,94.9,0,0,0,8.5
125,2020-11-09T02:04:00,0.8,南東,2.6,東南東,10.3,94.7,0,0,0,8.5
126,2020-11-09T02:05:00,0.9,南東,2.6,東南東,10.3,94.5,0,0,0,8.5
127,2020-11-09T02:06:00,0.9,南東,2.6,東南東,10.4,94.6,0,0,0,8.5
128,2020-11-09T02:07:00,0.9,南東,2.6,東南東,10.4,94.6,0,0,0,8.5
129,2020-11-09T02:08:00,1,南東,2.6,東南東,10.4,94.6,0,0,0,8.5
130,2020-11-09T02:09:00,1,南東,2.6,東南東,10.4,94.2,0,0,0,8.5
131,2020-11-09T02:10:00,1,南東,2.4,東南東,10.3,94,0,0,0,8.5
132,2020-11-09T02:11:00,1,南東,2.4,東南東,10.4,94.2,0,0,0,8.5
133,2020-11-09T02:12:00,1,南東,2.4,東南東,10.4,94.4,0,0,0,8.5
134,2020-11-09T02:13:00,1.2,南東,2.7,東北東,10.4,94.5,0,0,0,8.5
135,2020-11-09T02:14:00,1.3,南東,2.8,東,10.4,94.4,0,0,0,8.5
136,2020-11-09T02:15:00,1.4,東南東,2.8,東,10.4,94.2,0,0,0,8.5
137,2020-11-09T02:16:00,1.5,東南東,2.8,東,10.4,94.2,0,0,0,8.5
138,2020-11-09T02:17:00,1.6,東南東,2.8,東,10.4,94.4,0,0,0,8.5
139,2020-11-09T02:18:00,1.7,東南東,2.8,東,10.4,94.2,0,0,0,8.5
140,2020-11-09T02:19:00,1.7,東南東,3.1,東,10.5,94.1,0,0,0,8.5
141,2020-11-09T02:20:00,1.8,東南東,3.1,東,10.5,93.9,0,0,0,8.5
142,2020-11-09T02:21:00,1.8,東南東,3.1,東,10.4,93.7,0,0,0,8.5
143,2020-11-09T02:22:00,1.9,東南東,3.1,東,10.5,93.6,0,0,0,8.5
144,2020-11-09T02:23:00,1.9,東南東,3.1,東,10.5,93.7,0,0,0,8.5
145,2020-11-09T02:24:00,1.8,東南東,3.1,東,10.5,93.5,0,0,0,8.5
146,2020-11-09T02:25:00,1.8,東南東,3.1,東,10.5,93.2,0,0,0,8.5
147,2020-11-09T02:26:00,1.8,東南東,3.1,東,10.5,93,0,0,0,8.5
148,2020-11-09T02:27:00,1.7,東南東,3.1,東,10.6,92.7,0,0,0,8.5
149,2020-11-09T02:28:00,1.6,東南東,3.1,東,10.5,92.1,0,0,0,8.5
150,2020-11-09T02:29:00,1.6,東南東,2.8,東南東,10.6,91.6,0,0,0,8.5
151,2020-11-09T02:30:00,1.6,東南東,2.8,東南東,10.6,91.4,0,0,0,8.5
152,2020-11-09T02:31:00,1.7,東,2.8,東南東,10.6,91.1,0,0,0,8.5
153,2020-11-09T02:32:00,1.6,東,2.8,東南東,10.6,90.8,0,0,0,8.5
154,2020-11-09T02:33:00,1.6,東南東,2.8,東南東,10.6,90.7,0,0,0,8.5
155,2020-11-09T02:34:00,1.7,東南東,2.9,東南東,10.6,90.7,0,0,0,8.5
156,2020-11-09T02:35:00,1.7,東南東,2.9,東南東,10.6,90.6,0,0,0,8.5
157,2020-11-09T02:36:00,1.7,東南東,2.9,東南東,10.6,90.5,0,0,0,8.5
158,2020-11-09T02:37:00,1.7,東南東,2.9,東南東,10.6,90.5,0,0,0,8.5
159,2020-11-09T02:38:00,1.7,東南東,2.9,東南東,10.5,90.8,0,0,0,8.5
160,2020-11-09T02:39:00,1.6,東南東,2.9,東南東,10.5,91,0,0,0,8.5
161,2020-11-09T02:40:00,1.6,東南東,2.9,東南東,10.5,90.9,0,0,0,8.5
162,2020-11-09T02:41:00,1.7,東南東,3.3,東南東,10.6,90.6,0,0,0,8.5
163,2020-11-09T02:42:00,1.7,東南東,3.3,東南東,10.6,90.2,0,0,0,8.5
164,2020-11-09T02:43:00,1.6,東南東,3.3,東南東,10.7,90.8,0,0,0,8.5
165,2020-11-09T02:44:00,1.5,南東,3.3,東南東,10.8,91.2,0,0,0,8.5
166,2020-11-09T02:45:00,1.4,南東,3.3,東南東,10.6,90.3,0,0,0,8.5
167,2020-11-09T02:46:00,1.4,南東,3.3,東南東,10.5,90.1,0,0,0,8.5
168,2020-11-09T02:47:00,1.3,南東,3.3,東南東,10.5,90.5,0,0,0,8.5
169,2020-11-09T02:48:00,1.3,南東,3.3,東南東,10.5,91,0,0,0,8.5
170,2020-11-09T02:49:00,1.2,南東,3.3,東南東,10.4,91.1,0,0,0,8.5
171,2020-11-09T02:50:00,1.2,南東,3.3,東南東,10.4,91,0,0,0,8.5
172,2020-11-09T02:51:00,1.1,南東,2.3,南南東,10.4,90.9,0,0,0,8.5
173,2020-11-09T02:52:00,1,南東,2.3,南南東,10.6,91,0,0,0,8.5
174,2020-11-09T02:53:00,1,南東,2.3,南南東,10.5,90.4,0,0,0,8.5
175,2020-11-09T02:54:00,1.1,南東,1.8,東南東,10.4,89.9,0,0,0,8.5
176,2020-11-09T02:55:00,1.1,東南東,1.8,東南東,10.4,90,0,0,0,8.5
177,2020-11-09T02:56:00,1.1,東南東,2,東北東,10.3,90,0,0,0,8.5
178,2020-11-09T02:57:00,1.2,東南東,2.5,東,10.3,90.5,0,0,0,8.5
179,2020-11-09T02:58:00,1.3,東南東,2.5,東,10.3,90.7,0,0,0,8.5
180,2020-11-09T02:59:00,1.2,東,2.5,東,10.3,90.7,0,0,0,8.5
181,2020-11-09T03:00:00,1.3,東,2.5,東,10.3,90.7,0,0,0,8.5
182,2020-11-09T03:01:00,1.3,東,2.5,東,10.3,90.7,0,0,0,8.5
183,2020-11-09T03:02:00,1.3,東,2.5,東,10.2,90.6,0,0,0,8.5
184,2020-11-09T03:03:00,1.4,東,2.5,東,10.3,90.8,0,0,0,8.5
185,2020-11-09T03:04:00,1.4,東,2.5,東,10.3,90.9,0,0,0,8.5
186,2020-11-09T03:05:00,1.4,東,2.5,東,10.3,91,0,0,0,8.5
187,2020-11-09T03:06:00,1.4,東,2.5,東,10.3,90.8,0,0,0,8.5
188,2020-11-09T03:07:00,1.3,東,2.5,東北東,10.2,90.6,0,0,0,8.5
189,2020-11-09T03:08:00,1.3,東,2.5,東北東,10.2,90.9,0,0,0,8.5
190,2020-11-09T03:09:00,1.2,東,2.5,東北東,10.3,91.7,0,0,0,8.5
191,2020-11-09T03:10:00,1.2,東,2.5,東北東,10.2,91.7,0,0,0,8.5
192,2020-11-09T03:11:00,1.2,東南東,2.5,東北東,10.1,91.9,0,0,0,8.5
193,2020-11-09T03:12:00,1.1,東南東,1.8,南南東,10.2,92.7,0,0,0,8.5
194,2020-11-09T03:13:00,1,東南東,1.8,南南東,10.1,92.7,0,0,0,8.5
195,2020-11-09T03:14:00,0.9,南東,1.8,南南東,10.1,92.8,0,0,0,8.5
196,2020-11-09T03:15:00,0.8,南東,1.9,南東,10.1,93.1,0,0,0,8.5
197,2020-11-09T03:16:00,0.9,南東,1.9,南東,10.1,93.2,0,0,0,8.5
198,2020-11-09T03:17:00,0.9,南東,1.9,南東,10.1,93.5,0,0,0,8.5
199,2020-11-09T03:18:00,0.9,南東,2.1,南東,10.1,93.5,0,0,0,8.5
200,2020-11-09T03:19:00,1.1,南東,2.1,南東,10.1,93.2,0,0,0,8.5
201,2020-11-09T03:20:00,1,南東,2.1,南東,10,93.3,0,0,0,8.5
202,2020-11-09T03:21:00,1.1,南東,2.1,南東,10.1,93.5,0,0,0,8.5
203,2020-11-09T03:22:00,1.1,南東,2.1,南東,10,93.5,0,0,0,8.5
204,2020-11-09T03:23:00,1.2,南東,2.1,南東,10,93.6,0,0,0,8.5
205,2020-11-09T03:24:00,1.1,南東,2.1,南東,10.1,94,0,0,0,8.5
206,2020-11-09T03:25:00,1.1,南東,2.1,南東,10.1,94.1,0,0,0,8.5
207,2020-11-09T03:26:00,1,南東,2.1,南東,10.1,94,0,0,0,8.5
208,2020-11-09T03:27:00,0.9,南東,2.1,南東,10,94,0,0,0,8.5
209,2020-11-09T03:28:00,0.9,南東,1.9,南東,9.9,93.7,0,0,0,8.5
210,2020-11-09T03:29:00,0.9,東南東,2,北東,9.9,93.9,0,0,0,8.5
211,2020-11-09T03:30:00,0.9,東,2,北東,9.9,94.1,0,0,0,8.5
212,2020-11-09T03:31:00,0.8,東,2,北東,9.9,94.2,0,0,0,8.5
213,2020-11-09T03:32:00,0.8,東北東,2,北東,9.9,94.4,0,0,0,8.5
214,2020-11-09T03:33:00,0.9,東北東,2,北東,9.9,94.4,0,0,0,8.5
215,2020-11-09T03:34:00,1,東,2,北東,9.9,94.4,0,0,0,8.5
216,2020-11-09T03:35:00,1.1,東,2,北東,9.9,94.5,0,0,0,8.5
217,2020-11-09T03:36:00,1.2,東,2,北東,9.9,94.5,0,0,0,8.5
218,2020-11-09T03:37:00,1.2,東,2,北東,9.9,94.7,0,0,0,8.5
219,2020-11-09T03:38:00,1.2,東南東,2,北東,9.9,94.5,0,0,0,8.5
220,2020-11-09T03:39:00,1.2,東南東,2,南東,9.9,94.5,0,0,0,8.5
221,2020-11-09T03:40:00,1.2,東南東,2,南東,9.9,94.6,0,0,0,8.5
222,2020-11-09T03:41:00,1.3,南東,2,南東,9.9,94.5,0,0,0,8.5
223,2020-11-09T03:42:00,1.3,南東,2,南東,9.9,94.1,0,0,0,8.5
224,2020-11-09T03:43:00,1.2,南東,2.1,南南東,9.9,94.3,0,0,0,8.5
225,2020-11-09T03:44:00,1.1,南東,2.1,南南東,9.9,94.4,0,0,0,8.5
226,2020-11-09T03:45:00,1,南南東,2.1,南南東,9.9,94.5,0,0,0,8.5
227,2020-11-09T03:46:00,0.9,南南東,2.1,南南東,9.9,94.5,0,0,0,8.5
228,2020-11-09T03:47:00,0.8,南南東,2.1,南南東,9.9,94.6,0,0,0,8.5
229,2020-11-09T03:48:00,0.7,南南東,2.1,南南東,9.8,94.4,0,0,0,8.5
230,2020-11-09T03:49:00,0.6,南東,2.1,南南東,9.8,94.3,0,0,0,8.5
231,2020-11-09T03:50:00,0.6,南東,2.1,南南東,9.8,94.4,0,0,0,8.5
232,2020-11-09T03:51:00,0.6,南東,2.1,南南東,9.8,94.5,0,0,0,8.5
233,2020-11-09T03:52:00,0.6,東南東,2.1,南南東,9.8,94.5,0,0,0,8.5
234,2020-11-09T03:53:00,0.7,東南東,2.1,東南東,9.7,94.4,0,0,0,8.5
235,2020-11-09T03:54:00,0.8,東南東,2.3,東南東,9.8,94.4,0,0,0,8.5
236,2020-11-09T03:55:00,1.1,東南東,3.9,東南東,9.8,94.6,0,0,0,8.5
237,2020-11-09T03:56:00,1.2,東南東,3.9,東南東,10,94.9,0,0,0,8.5
238,2020-11-09T03:57:00,1.3,東,3.9,東南東,10.1,94.2,0,0,0,8.5
239,2020-11-09T03:58:00,1.4,東,3.9,東南東,10.1,93.1,0,0,0,8.5
240,2020-11-09T03:59:00,1.4,東,3.9,東南東,10,92.3,0,0,0,8.5
241,2020-11-09T04:00:00,1.4,東,3.9,東南東,9.9,92.2,0,0,0,8.5
242,2020-11-09T04:01:00,1.4,東,3.9,東南東,10.1,92.5,0,0,0,8.5
243,2020-11-09T04:02:00,1.3,東,3.9,東南東,10.1,92.4,0,0,0,8.5
244,2020-11-09T04:03:00,1.2,東,3.9,東南東,10.1,92,0,0,0,8.5
245,2020-11-09T04:04:00,1.1,東,3.9,東南東,10.2,92.3,0,0,0,8.5
246,2020-11-09T04:05:00,0.9,東,2.5,東北東,10.1,92,0,0,0,8.5
247,2020-11-09T04:06:00,0.9,東,2.5,東北東,10,91.9,0,0,0,8.5
248,2020-11-09T04:07:00,0.8,東,2.4,北東,10,92,0,0,0,8.5
249,2020-11-09T04:08:00,0.7,東,1.7,南南東,10.1,92.2,0,0,0,8.5
250,2020-11-09T04:09:00,0.7,東南東,1.7,南南東,10.1,92.4,0,0,0,8.5
251,2020-11-09T04:10:00,0.6,東,1.7,南南東,10.1,92.3,0,0,0,8.5
252,2020-11-09T04:11:00,0.6,東,1.7,南南東,10.1,92.3,0,0,0,8.5
253,2020-11-09T04:12:00,0.5,東,1.7,南南東,10.1,92.5,0,0,0,8.5
254,2020-11-09T04:13:00,0.5,東,1.7,南南東,10,92.4,0,0,0,8.5
255,2020-11-09T04:14:00,0.7,東北東,4.6,北,10.1,92.4,0,0,0,8.5
256,2020-11-09T04:15:00,0.9,東北東,4.7,北北東,10.2,92.1,0,0,0,8.5
257,2020-11-09T04:16:00,1,東北東,4.7,北北東,10.3,90.9,0,0,0,8.5
258,2020-11-09T04:17:00,1.1,東北東,4.7,北北東,10.3,89.5,0,0,0,8.5
259,2020-11-09T04:18:00,1.2,東北東,4.7,北北東,10.3,88.7,0,0,0,8.5
260,2020-11-09T04:19:00,1.3,北東,4.7,北北東,10.3,88.7,0,0,0,8.5
261,2020-11-09T04:20:00,1.5,北東,4.7,北北東,10.3,88.4,0,0,0,8.5
262,2020-11-09T04:21:00,1.8,北東,5.5,北北東,10.4,87.5,0,0,0,8.5
263,2020-11-09T04:22:00,2.2,北東,6.7,北北東,10.6,85.5,0,0,0,8.5
264,2020-11-09T04:23:00,2.4,北北東,6.7,北北東,10.6,83.9,0,0,0,8.5
265,2020-11-09T04:24:00,2.4,北北東,6.7,北北東,10.7,82.9,0,0,0,8.5
266,2020-11-09T04:25:00,2.5,北北東,6.7,北北東,10.7,82.7,0,0,0,8.5
267,2020-11-09T04:26:00,2.5,北北東,6.7,北北東,10.6,83.3,0,0,0,8.5
268,2020-11-09T04:27:00,2.6,北北東,6.7,北北東,10.6,83.5,0,0,0,8.5
269,2020-11-09T04:28:00,2.8,北北東,6.7,北北東,10.6,82.6,0,0,0,8.5
270,2020-11-09T04:29:00,2.9,北北東,6.7,北北東,10.5,83.1,0,0,0,8.5
271,2020-11-09T04:30:00,2.9,北北東,6.7,北北東,10.5,83.2,0,0,0,8.5
272,2020-11-09T04:31:00,2.9,北北東,6.7,北北東,10.5,82.6,0,0,0,8.5
273,2020-11-09T04:32:00,2.8,北,5.3,北東,10.5,81.9,0,0,0,8.5
274,2020-11-09T04:33:00,2.8,北北東,5.3,北東,10.5,81.7,0,0,0,8.5
275,2020-11-09T04:34:00,2.8,北北東,5.3,北東,10.5,82.1,0,0,0,8.5
276,2020-11-09T04:35:00,3.1,北北東,6.6,北北東,10.5,81.6,0,0,0,8.5
277,2020-11-09T04:36:00,3.3,北北東,6.6,北北東,10.5,81.3,0,0,0,8.5
278,2020-11-09T04:37:00,3.3,北北東,6.6,北北東,10.4,82,0,0,0,8.5
279,2020-11-09T04:38:00,3.3,北北東,6.6,北北東,10.4,82.2,0,0,0,8.5
280,2020-11-09T04:39:00,3.3,北北東,6.6,北北東,10.3,82.2,0,0,0,8.5
281,2020-11-09T04:40:00,3.4,北北東,6.6,北北東,10.3,82.8,0,0,0,8.5
282,2020-11-09T04:41:00,3.3,北北東,6.6,北北東,10.3,82,0,0,0,8.5
283,2020-11-09T04:42:00,3.2,北東,6.6,北北東,10.3,82.3,0,0,0,8.5
284,2020-11-09T04:43:00,3.3,北東,6.6,北北東,10.3,82.8,0,0,0,8.5
285,2020-11-09T04:44:00,3.3,北東,6.6,北北東,10.3,82.6,0,0,0,8.5
286,2020-11-09T04:45:00,3.1,北東,5.8,東北東,10.3,82.9,0,0,0,8.5
287,2020-11-09T04:46:00,2.9,北東,5.8,東北東,10.2,83.5,0,0,0,8.5
288,2020-11-09T04:47:00,3,北東,5.8,東北東,10.2,83.7,0,0,0,8.5
289,2020-11-09T04:48:00,3.1,北東,5.8,東北東,10.2,83.5,0,0,0,8.5
290,2020-11-09T04:49:00,3.2,北東,5.8,東北東,10.2,82.9,0,0,0,8.5
291,2020-11-09T04:50:00,3.1,北東,5.8,東北東,10.2,83,0,0,0,8.5
292,2020-11-09T04:51:00,3.1,北東,5.8,東北東,10.2,83.6,0,0,0,8.5
293,2020-11-09T04:52:00,3,北東,5.8,東北東,10.2,83.8,0,0,0,8.5
294,2020-11-09T04:53:00,2.8,北東,5.7,北東,10.2,84.5,0,0,0,8.5
295,2020-11-09T04:54:00,2.7,北東,5.7,北東,10.1,85.1,0,0,0,8.5
296,2020-11-09T04:55:00,2.7,北東,5.7,北東,10.1,84.8,0,0,0,8.5
297,2020-11-09T04:56:00,2.6,北東,5.7,北東,10.1,85.1,0,0,0,8.5
298,2020-11-09T04:57:00,2.5,北東,5,北東,10.1,85.5,0,0,0,8.5
299,2020-11-09T04:58:00,2.3,北東,4.6,東北東,10.1,85.1,0,0,0,8.5
300,2020-11-09T04:59:00,2.4,北東,6.5,北北東,10.1,85.1,0,0,0,8.5
301,2020-11-09T05:00:00,2.7,北東,7.4,北北東,10.2,83.8,0,0,0,8.5
302,2020-11-09T05:01:00,3,北東,7.5,北東,10.2,82.2,0,0,0,8.5
303,2020-11-09T05:02:00,3.2,北東,7.5,北東,10.3,81.3,0,0,0,8.5
304,2020-11-09T05:03:00,3.5,北東,7.5,北東,10.3,81.5,0,0,0,8.5
305,2020-11-09T05:04:00,3.7,北東,7.5,北東,10.2,82.1,0,0,0,8.5
306,2020-11-09T05:05:00,3.7,北東,7.5,北東,10.2,82.6,0,0,0,8.5
307,2020-11-09T05:06:00,3.8,北北東,7.5,北東,10.1,83.1,0,0,0,8.5
308,2020-11-09T05:07:00,3.9,北北東,7.5,北東,10.1,83.9,0,0,0,8.5
309,2020-11-09T05:08:00,3.9,北東,7.5,北東,10.1,84.6,0,0,0,8.5
310,2020-11-09T05:09:00,3.8,北北東,7.5,北東,10.1,84.8,0,0,0,8.5
311,2020-11-09T05:10:00,3.5,北北東,7.5,北東,10,84.9,0,0,0,8.5
312,2020-11-09T05:11:00,3.1,北北東,6.4,北東,10,85.3,0,0,0,8.5
313,2020-11-09T05:12:00,2.9,北東,6.2,北北東,10,85.7,0,0,0,8.5
314,2020-11-09T05:13:00,2.7,北東,5.1,北北東,10,86.1,0,0,0,8.5
315,2020-11-09T05:14:00,2.8,北東,7.8,北北東,10,85.8,0,0,0,8.5
316,2020-11-09T05:15:00,2.9,北東,7.8,北北東,10,84.3,0,0,0,8.5
317,2020-11-09T05:16:00,2.9,北東,7.8,北北東,10,84.6,0,0,0,8.5
318,2020-11-09T05:17:00,2.9,北東,7.8,北北東,9.9,84.9,0,0,0,8.5
319,2020-11-09T05:18:00,2.9,北東,7.8,北北東,9.9,84.4,0,0,0,8.5
320,2020-11-09T05:19:00,2.8,北東,7.8,北北東,9.9,84.6,0,0,0,8.5
321,2020-11-09T05:20:00,2.6,北東,7.8,北北東,9.9,84.9,0,0,0,8.5
322,2020-11-09T05:21:00,2.7,北東,7.8,北北東,9.9,84.6,0,0,0,8.5
323,2020-11-09T05:22:00,2.6,北東,7.8,北北東,9.9,84.4,0,0,0,8.5
324,2020-11-09T05:23:00,2.5,北東,7.8,北北東,9.9,84.4,0,0,0,8.5
325,2020-11-09T05:24:00,2.3,北東,7.3,北北東,9.9,84.4,0,0,0,8.5
326,2020-11-09T05:25:00,2.1,北東,4.2,東北東,9.9,84,0,0,0,8.5
327,2020-11-09T05:26:00,2.1,北東,4.2,東北東,9.8,84.2,0,0,0,8.5
328,2020-11-09T05:27:00,2,北東,4.2,東北東,9.8,84.1,0,0,0,8.5
329,2020-11-09T05:28:00,2,北東,3.9,北東,9.8,84.2,0,0,0,8.5
330,2020-11-09T05:29:00,2,北東,3.9,北東,9.8,84.1,0,0,0,8.5
331,2020-11-09T05:30:00,2.1,北東,3.9,北東,9.8,84.1,0,0,0,8.5
332,2020-11-09T05:31:00,2,北東,3.9,北東,9.8,83.9,0,0,0,8.5
333,2020-11-09T05:32:00,2.1,北東,3.9,北東,9.8,84,0,0,0,8.5
334,2020-11-09T05:33:00,2.2,北東,4.7,北北東,9.8,84,0,0,0,8.5
335,2020-11-09T05:34:00,2.2,北東,4.7,北北東,9.8,83,0,0,0,8.5
336,2020-11-09T05:35:00,2.3,北東,4.7,北北東,9.9,81.9,0,0,0,8.5
337,2020-11-09T05:36:00,2.2,北東,4.7,北北東,9.9,81.4,0,0,0,8.5
338,2020-11-09T05:37:00,2.1,北東,4.7,北北東,9.8,81.9,0,0,0,8.5
339,2020-11-09T05:38:00,2.2,北東,4.7,北北東,9.8,82.1,0,0,0,8.5
340,2020-11-09T05:39:00,2.2,北東,4.7,北北東,9.8,81.7,0,0,0,8.5
341,2020-11-09T05:40:00,2.1,北東,4.7,北北東,9.8,81.7,0,0,0,8.5
342,2020-11-09T05:41:00,2,北東,4.7,北北東,9.8,81.9,0,0,0,8.5
343,2020-11-09T05:42:00,1.9,北東,4.7,北北東,9.7,81.9,0,0,0,8.5
344,2020-11-09T05:43:00,1.8,北東,4.5,北,9.7,81.7,0,0,0,8.5
345,2020-11-09T05:44:00,1.7,北東,4.5,北,9.7,81.2,0,0,0,8.5
346,2020-11-09T05:45:00,1.6,北東,3.9,東北東,9.7,81.2,0,0,0,8.5
347,2020-11-09T05:46:00,1.7,北東,3.9,東北東,9.7,81.1,0,0,0,8.5
348,2020-11-09T05:47:00,1.7,北東,3.9,東北東,9.7,80.8,0,0,0,8.5
349,2020-11-09T05:48:00,1.6,北東,2.9,北東,9.7,80.9,0,0,0,8.5
350,2020-11-09T05:49:00,1.6,北東,2.9,北東,9.7,80.9,0,0,0,8.5
351,2020-11-09T05:50:00,1.7,北東,2.9,北東,9.6,80.8,0,0,0,8.5
352,2020-11-09T05:51:00,1.6,北東,2.9,北東,9.6,80.4,0,0,0,8.5
353,2020-11-09T05:52:00,1.7,北東,2.9,北東,9.5,80.7,0,0,0,8.5
354,2020-11-09T05:53:00,1.7,北東,2.9,北東,9.6,80.6,0,0,0,8.5
355,2020-11-09T05:54:00,1.7,北東,2.9,北東,9.6,80.5,0,0,0,8.5
356,2020-11-09T05:55:00,1.6,北東,2.9,北東,9.5,80.9,0,0,0,8.5
357,2020-11-09T05:56:00,1.5,北東,2.9,北東,9.5,81,0,0,0,8.5
358,2020-11-09T05:57:00,1.4,北東,2.9,北東,9.5,81.2,0,0,0,8.5
359,2020-11-09T05:58:00,1.3,東北東,2.7,東北東,9.5,81.7,0,0,0,8.5
360,2020-11-09T05:59:00,1.3,北東,2.7,東北東,9.5,82.2,0,0,0,8.5
361,2020-11-09T06:00:00,1.3,北東,2.8,東北東,9.4,82.7,0,0,0,8.5
362,2020-11-09T06:01:00,1.4,北東,3.3,北北東,9.5,82.2,0,0,0,8.5
363,2020-11-09T06:02:00,1.3,北東,3.3,北北東,9.5,80.9,0,0,0,8.5
364,2020-11-09T06:03:00,1.4,北東,3.3,北北東,9.5,80.7,0,0,0,8.5
365,2020-11-09T06:04:00,1.4,北東,3.3,北北東,9.4,81.1,0,0,0,8.5
366,2020-11-09T06:05:00,1.4,東北東,3.3,北北東,9.5,82.1,0,0,0,8.5
367,2020-11-09T06:06:00,1.4,東北東,3.3,北北東,9.4,82.4,0,0,0,8.5
368,2020-11-09T06:07:00,1.5,東北東,3.3,北北東,9.4,82.6,0,0,0,8.5
369,2020-11-09T06:08:00,1.5,東北東,3.3,北北東,9.3,83.1,0,0,0,8.5
370,2020-11-09T06:09:00,1.5,東,3.3,北北東,9.1,84.3,0,0,0,8.5
371,2020-11-09T06:10:00,1.4,東,3.3,北北東,9,85.4,0,0,0,8.5
372,2020-11-09T06:11:00,1.3,東,2.4,北東,9.2,85.8,0,0,0,8.5
373,2020-11-09T06:12:00,1.4,東,3.2,北東,9.1,85.2,0,0,0,8.5
374,2020-11-09T06:13:00,1.4,東,3.2,北東,9.2,84.8,0,0,0,8.5
375,2020-11-09T06:14:00,1.4,東,3.2,北東,9.2,84,0,0,0,8.5
376,2020-11-09T06:15:00,1.3,東,3.2,北東,9.2,84.3,0,0,0,8.5
377,2020-11-09T06:16:00,1.3,東,3.2,北東,9,84.4,0,0,0,8.5
378,2020-11-09T06:17:00,1.2,東,3.2,北東,8.9,85.8,0,0,0,8.5
379,2020-11-09T06:18:00,1.2,東南東,3.2,北東,8.8,87.1,0,0,0,8.5
380,2020-11-09T06:19:00,1.2,東南東,3.2,北東,8.8,88.1,0,0,0,8.5
381,2020-11-09T06:20:00,1.2,東南東,3.2,北東,8.7,87.9,0,0,0,8.5
382,2020-11-09T06:21:00,1.3,東南東,3.2,北東,8.7,88.2,0,0,0,8.5
383,2020-11-09T06:22:00,1.2,東南東,2.9,東北東,8.6,87.9,0,0,0,8.5
384,2020-11-09T06:23:00,1.1,東南東,2.3,東,8.6,88.4,0,0,0,8.5
385,2020-11-09T06:24:00,1.1,南東,2.3,東,8.5,88.8,0,0,0,8.5
386,2020-11-09T06:25:00,1.2,南東,2.4,東南東,8.4,89.6,0,0,0,8.5
387,2020-11-09T06:26:00,1.3,南東,2.4,東南東,8.5,90.3,0,0,0,8.5
388,2020-11-09T06:27:00,1.4,南東,2.4,東南東,8.5,90.5,0,0,0,8.5
389,2020-11-09T06:28:00,1.3,南東,2.4,東南東,8.7,91,0,0,0,8.5
390,2020-11-09T06:29:00,1.2,南東,2.4,東南東,8.5,90.6,0,0,0,8.5
391,2020-11-09T06:30:00,1.1,南東,2.4,東南東,8.5,90.1,0,0,0,8.5
392,2020-11-09T06:31:00,1.1,南東,2.4,東南東,8.6,90.5,0,0,0,8.5
393,2020-11-09T06:32:00,1.1,南東,2.4,東南東,8.7,90.5,0,0,0,8.5
394,2020-11-09T06:33:00,1.1,南東,2.4,東南東,8.7,89.1,0,0,0,8.5
395,2020-11-09T06:34:00,1.1,東南東,2.4,東南東,8.7,88.7,0,0,0,8.5
396,2020-11-09T06:35:00,1,東南東,2.3,東,8.7,88.4,0,0,0,8.5
397,2020-11-09T06:36:00,0.8,南東,2.3,東,8.7,88.3,0,0,0,8.5
398,2020-11-09T06:37:00,0.7,東南東,2.3,東,8.4,87.8,0,0,0,8.5
399,2020-11-09T06:38:00,0.7,東南東,2.3,東,8.3,88.2,0,0,0,8.5
400,2020-11-09T06:39:00,0.7,南東,2.3,東,8.3,89,0,0,0,8.5
401,2020-11-09T06:40:00,0.8,南,2.3,東,8.2,89.2,0,0,0,8.5
402,2020-11-09T06:41:00,0.7,西南西,2.3,東,8.2,89.8,0,0,0,8.5
403,2020-11-09T06:42:00,0.7,西,2.2,南東,8.3,90.5,0,0,0,8.5
404,2020-11-09T06:43:00,0.6,西,2.2,南東,8.3,90.6,0,0,0,8.5
405,2020-11-09T06:44:00,0.5,西,1.2,西北西,8.3,90.6,0,0,0,8.5
406,2020-11-09T06:45:00,0.5,西,1.2,西北西,8.4,90.7,0,0,0,8.5
407,2020-11-09T06:46:00,0.5,西北西,1.2,西北西,8.6,91,0,0,0,8.5
408,2020-11-09T06:47:00,0.5,西北西,1.2,西北西,8.7,91.5,0,0,0,8.5
409,2020-11-09T06:48:00,0.5,西,1.2,西北西,8.5,89.8,0,0,0,8.5
410,2020-11-09T06:49:00,0.5,西,1.2,西北西,8.4,89,0,0,0,8.5
411,2020-11-09T06:50:00,0.5,南西,1.2,西北西,8.3,89.4,0,0,0,8.5
412,2020-11-09T06:51:00,0.4,南南東,1.4,東北東,8.2,89.5,0,0,0,8.5
413,2020-11-09T06:52:00,0.5,東南東,1.4,東北東,8.2,90.1,0,0,0,8.5
414,2020-11-09T06:53:00,0.5,東南東,1.4,東北東,8.2,90.7,0,0,0,8.5
415,2020-11-09T06:54:00,0.5,東,1.4,東北東,8.2,91,0,0,0,8.5
416,2020-11-09T06:55:00,0.6,東,1.4,東北東,8.2,91.3,0,0,0,8.5
417,2020-11-09T06:56:00,0.6,東,1.4,東北東,8.6,92.5,0,0,0,8.5
418,2020-11-09T06:57:00,0.6,東,1.4,東北東,8.6,92.7,0,0,0,8.5